Location: Newark
(15.4608°S, 41.1635°W)
Time: 10:04:13
(UTC+00:00)

Vanguard 3 - Pass Details

Date: 30 July 2021
Orbit: 510 x 3260 km, 33.3° (Epoch: 22 September)

Event Time Altitude Azimuth Distance (km) Brightness Sun altitude
Rises 15:46:28 0° 241° (WSW) 3,044 10.1 53.6°
Reaches altitude 10° 15:48:23 10° 242° (WSW) 2,304 9.6 53.4°
Maximum altitude 15:53:44 80° 328° (NNW) 1,075 9.1 52.8°
Drops below altitude 10° 16:03:13 10° 54° (NE) 3,966 10.9 51.8°
Sets 16:07:31 0° 55° (NE) 5,426 11.4 51.3°
